TimePDT,TemperatureF,Dew PointF,Humidity,Sea Level PressureIn,VisibilityMPH,Wind Direction,Wind SpeedMPH,Gust SpeedMPH,PrecipitationIn,Events,Conditions,WindDirDegrees,DateUTC
12:51 AM,62.1,57.9,86,30.05,9.0,NE,3.5,-,N/A,,Overcast,50,2012-10-05 07:51:00
1:51 AM,61.0,57.0,87,30.05,9.0,ENE,4.6,-,N/A,,Overcast,60,2012-10-05 08:51:00
2:37 AM,60.8,55.4,82,30.05,9.0,ENE,3.5,-,N/A,,Scattered Clouds,60,2012-10-05 09:37:00
2:51 AM,60.1,55.9,86,30.04,8.0,NE,3.5,-,N/A,,Mostly Cloudy,40,2012-10-05 09:51:00
3:21 AM,59.0,55.4,88,30.04,8.0,NE,4.6,-,N/A,,Scattered Clouds,50,2012-10-05 10:21:00
3:51 AM,59.0,57.0,93,30.03,6.0,ENE,6.9,-,N/A,,Clear,60,2012-10-05 10:51:00
4:11 AM,59.0,57.2,94,30.03,5.0,NE,5.8,-,N/A,,Scattered Clouds,50,2012-10-05 11:11:00
4:20 AM,59.0,57.2,94,30.03,4.0,ENE,8.1,-,N/A,,Mostly Cloudy,70,2012-10-05 11:20:00
4:34 AM,59.0,57.2,94,30.03,2.0,ENE,8.1,-,N/A,,Overcast,60,2012-10-05 11:34:00
4:43 AM,57.2,57.2,100,30.03,1.0,ENE,8.1,-,N/A,,Overcast,60,2012-10-05 11:43:00
4:51 AM,57.9,57.0,97,30.03,1.0,NE,6.9,-,N/A,,Overcast,50,2012-10-05 11:51:00
5:07 AM,57.2,57.2,100,30.03,0.5,ENE,6.9,-,N/A,Fog,Fog,60,2012-10-05 12:07:00
5:42 AM,57.2,57.2,100,30.04,1.0,ENE,3.5,-,N/A,,Mist,70,2012-10-05 12:42:00
5:51 AM,57.0,57.0,100,30.04,0.8,ENE,5.8,-,N/A,,Mist,60,2012-10-05 12:51:00
6:05 AM,57.2,55.4,94,30.04,1.5,ENE,6.9,-,N/A,,Overcast,60,2012-10-05 13:05:00
6:15 AM,57.2,55.4,94,30.04,3.0,ENE,5.8,-,N/A,,Overcast,60,2012-10-05 13:15:00
6:42 AM,55.4,55.4,100,30.04,5.0,NE,4.6,-,N/A,,Overcast,50,2012-10-05 13:42:00
6:51 AM,55.9,55.0,97,30.05,4.0,NE,4.6,-,N/A,,Mostly Cloudy,50,2012-10-05 13:51:00
7:18 AM,55.4,55.4,100,30.05,4.0,NE,4.6,-,N/A,,Scattered Clouds,40,2012-10-05 14:18:00
7:51 AM,57.9,55.0,90,30.05,5.0,ENE,4.6,-,N/A,,Clear,60,2012-10-05 14:51:00
9:51 AM,66.0,57.9,75,30.06,8.0,Calm,Calm,-,N/A,,Clear,0,2012-10-05 16:51:00
10:51 AM,68.0,57.9,70,30.05,9.0,WSW,5.8,-,N/A,,Clear,250,2012-10-05 17:51:00
11:51 AM,69.1,59.0,70,30.04,10.0,SW,8.1,-,N/A,,Clear,220,2012-10-05 18:51:00
12:51 PM,71.1,59.0,66,30.02,10.0,SW,10.4,-,N/A,,Clear,230,2012-10-05 19:51:00
1:51 PM,70.0,59.0,68,29.99,10.0,SW,6.9,-,N/A,,Clear,220,2012-10-05 20:51:00
2:51 PM,70.0,60.1,71,29.97,10.0,SW,8.1,-,N/A,,Clear,230,2012-10-05 21:51:00
3:51 PM,70.0,60.1,71,29.95,10.0,Variable,5.8,-,N/A,,Clear,0,2012-10-05 22:51:00
4:51 PM,70.0,60.1,71,29.93,9.0,Variable,4.6,-,N/A,,Clear,0,2012-10-05 23:51:00
5:51 PM,69.1,61.0,75,29.93,8.0,Calm,Calm,-,N/A,,Clear,0,2012-10-06 00:51:00
6:51 PM,69.1,61.0,75,29.92,9.0,Calm,Calm,-,N/A,,Clear,0,2012-10-06 01:51:00
7:51 PM,69.1,61.0,75,29.93,9.0,ESE,3.5,-,N/A,,Clear,110,2012-10-06 02:51:00
8:51 PM,66.0,60.1,81,29.94,9.0,Calm,Calm,-,N/A,,Clear,0,2012-10-06 03:51:00
9:51 PM,64.9,61.0,87,29.94,8.0,East,3.5,-,N/A,,Clear,100,2012-10-06 04:51:00
10:51 PM,64.0,60.1,87,29.94,8.0,ENE,3.5,-,N/A,,Clear,60,2012-10-06 05:51:00
11:51 PM,62.1,57.9,86,29.95,9.0,Calm,Calm,-,N/A,,Clear,0,2012-10-06 06:51:00